Time,TemperatureF,DewpointF,PressureIn,WindDirection,WindDirectionDegrees,WindSpeedMPH,WindSpeedGustMPH,Humidity,HourlyPrecipIn,Conditions,Clouds,dailyrainin,SoftwareType,DateUTC
2013-10-23 00:00:00,72.0,64.0,29.83,WSW,257,0.0,0.0,76,0.00,,---,0.00,VWS V14.01,2013-10-23 04:00:00,
2013-10-23 00:01:00,72.0,64.0,29.83,WSW,257,0.0,0.0,76,0.00,,---,0.00,VWS V14.01,2013-10-23 04:01:00,
2013-10-23 00:06:00,72.0,64.0,29.83,WSW,257,0.0,0.0,76,0.00,,---,0.00,VWS V14.01,2013-10-23 04:06:00,
2013-10-23 00:11:00,72.0,64.0,29.83,WSW,257,0.0,0.0,76,0.00,,---,0.00,VWS V14.01,2013-10-23 04:11:00,
2013-10-23 00:16:00,72.0,64.0,29.83,WSW,257,0.0,0.0,76,0.00,,---,0.00,VWS V14.01,2013-10-23 04:16:00,
2013-10-23 00:21:00,71.8,63.8,29.83,WSW,257,0.0,0.0,76,0.00,,---,0.00,VWS V14.01,2013-10-23 04:21:00,
2013-10-23 00:26:00,71.8,64.2,29.83,WSW,257,0.0,0.0,77,0.00,,---,0.00,VWS V14.01,2013-10-23 04:26:00,
2013-10-23 00:31:00,71.8,64.2,29.83,WSW,257,0.0,0.0,77,0.00,,---,0.00,VWS V14.01,2013-10-23 04:31:00,
2013-10-23 00:36:00,71.6,64.0,29.83,WSW,257,0.0,0.0,77,0.00,,---,0.00,VWS V14.01,2013-10-23 04:36:00,
2013-10-23 00:41:00,71.6,64.0,29.83,WSW,257,0.0,0.0,77,0.00,,---,0.00,VWS V14.01,2013-10-23 04:41:00,
2013-10-23 00:46:00,71.6,64.0,29.83,WSW,257,0.0,0.0,77,0.00,,---,0.00,VWS V14.01,2013-10-23 04:46:00,
2013-10-23 00:51:00,71.4,63.8,29.83,WSW,257,0.0,0.0,77,0.00,,---,0.00,VWS V14.01,2013-10-23 04:51:00,
2013-10-23 00:56:00,71.4,63.8,29.83,WSW,257,0.0,0.0,77,0.00,,---,0.00,VWS V14.01,2013-10-23 04:56:00,
2013-10-23 01:01:00,71.4,64.2,29.83,WSW,257,0.0,0.0,78,0.00,,---,0.00,VWS V14.01,2013-10-23 05:01:00,
2013-10-23 01:06:00,71.6,64.4,29.83,WSW,257,0.0,0.0,78,0.00,,---,0.00,VWS V14.01,2013-10-23 05:06:00,
2013-10-23 01:12:00,71.4,64.2,29.83,WSW,257,0.0,0.0,78,0.00,,---,0.00,VWS V14.01,2013-10-23 05:12:00,
2013-10-23 01:17:00,71.4,64.2,29.83,WSW,257,0.0,0.0,78,0.00,,---,0.00,VWS V14.01,2013-10-23 05:17:00,
2013-10-23 01:22:00,71.4,64.2,29.83,WSW,257,0.0,0.0,78,0.00,,---,0.00,VWS V14.01,2013-10-23 05:22:00,
2013-10-23 01:27:00,71.4,64.6,29.83,WSW,257,0.0,0.0,79,0.00,,---,0.00,VWS V14.01,2013-10-23 05:27:00,
2013-10-23 01:32:00,71.6,64.8,29.83,WSW,257,0.0,0.0,79,0.00,,---,0.00,VWS V14.01,2013-10-23 05:32:00,
2013-10-23 01:37:00,71.6,64.8,29.83,WSW,257,0.0,0.0,79,0.00,,---,0.00,VWS V14.01,2013-10-23 05:37:00,
2013-10-23 01:42:00,71.6,64.8,29.83,WSW,255,0.0,0.0,79,0.00,,---,0.00,VWS V14.01,2013-10-23 05:42:00,
2013-10-23 01:47:00,71.6,65.1,29.83,WSW,255,0.0,0.0,80,0.00,,---,0.00,VWS V14.01,2013-10-23 05:47:00,
2013-10-23 01:52:00,71.8,65.3,29.83,WNW,290,0.0,0.0,80,0.00,,---,0.00,VWS V14.01,2013-10-23 05:52:00,
2013-10-23 01:57:00,71.8,65.3,29.83,West,281,0.0,0.0,80,0.00,,---,0.00,VWS V14.01,2013-10-23 05:57:00,
2013-10-23 02:02:00,71.8,65.6,29.83,West,277,0.0,0.0,81,0.00,,---,0.00,VWS V14.01,2013-10-23 06:02:00,
2013-10-23 02:07:00,71.8,66.0,29.83,WNW,291,0.0,0.0,82,0.00,,---,0.00,VWS V14.01,2013-10-23 06:07:00,
2013-10-23 02:12:00,71.8,66.3,29.83,SW,227,0.0,0.0,83,0.00,,---,0.00,VWS V14.01,2013-10-23 06:12:00,
2013-10-23 02:17:00,72.0,66.2,29.83,WSW,244,0.0,0.0,82,0.00,,---,0.00,VWS V14.01,2013-10-23 06:17:00,
2013-10-23 02:22:00,72.0,67.2,29.83,SW,226,0.0,0.0,85,0.00,,---,0.00,VWS V14.01,2013-10-23 06:22:00,
2013-10-23 02:27:00,72.1,67.4,29.83,WSW,244,0.0,3.1,85,0.00,,---,0.00,VWS V14.01,2013-10-23 06:27:00,
2013-10-23 02:32:00,72.0,67.9,29.83,WSW,238,3.6,3.6,87,0.00,,---,0.00,VWS V14.01,2013-10-23 06:32:00,
2013-10-23 02:37:00,72.0,68.2,29.83,WSW,246,3.6,3.6,88,0.00,,---,0.00,VWS V14.01,2013-10-23 06:37:00,
2013-10-23 02:42:00,71.6,67.2,29.83,NW,304,0.0,3.1,86,0.00,,---,0.00,VWS V14.01,2013-10-23 06:42:00,
2013-10-23 02:47:00,71.6,67.2,29.83,West,278,3.6,3.6,86,0.00,,---,0.00,VWS V14.01,2013-10-23 06:47:00,
2013-10-23 02:52:00,71.2,66.5,29.83,NNW,337,4.0,4.0,85,0.00,,---,0.00,VWS V14.01,2013-10-23 06:52:00,
2013-10-23 02:57:00,71.1,66.3,29.83,SW,227,0.0,0.0,85,0.00,,---,0.00,VWS V14.01,2013-10-23 06:57:00,
2013-10-23 03:02:00,70.7,65.6,29.83,North,357,0.0,3.1,84,0.00,,---,0.00,VWS V14.01,2013-10-23 07:02:00,
2013-10-23 03:07:00,70.5,65.5,29.83,ENE,69,2.7,2.7,84,0.00,,---,0.00,VWS V14.01,2013-10-23 07:07:00,
2013-10-23 03:12:00,70.3,64.9,29.83,NNE,19,0.0,0.0,83,0.00,,---,0.00,VWS V14.01,2013-10-23 07:12:00,
2013-10-23 03:17:00,70.3,64.9,29.80,North,0,0.0,0.0,83,0.00,,---,0.00,VWS V14.01,2013-10-23 07:17:00,
2013-10-23 03:22:00,70.2,64.8,29.80,NW,314,0.0,0.0,83,0.00,,---,0.00,VWS V14.01,2013-10-23 07:22:00,
2013-10-23 03:27:00,70.0,64.6,29.80,WNW,289,0.0,0.0,83,0.00,,---,0.00,VWS V14.01,2013-10-23 07:27:00,
2013-10-23 03:32:00,69.8,64.4,29.83,SSW,198,0.0,0.0,83,0.00,,---,0.00,VWS V14.01,2013-10-23 07:32:00,
2013-10-23 03:37:00,69.6,64.2,29.83,ESE,113,0.0,0.0,83,0.00,,---,0.00,VWS V14.01,2013-10-23 07:37:00,
2013-10-23 03:42:00,69.6,64.2,29.83,NNW,344,0.0,0.0,83,0.00,,---,0.00,VWS V14.01,2013-10-23 07:42:00,
2013-10-23 03:47:00,69.4,64.1,29.83,West,268,2.7,2.7,83,0.00,,---,0.00,VWS V14.01,2013-10-23 07:47:00,
2013-10-23 03:52:00,69.4,64.4,29.83,NNE,25,0.0,0.0,84,0.00,,---,0.00,VWS V14.01,2013-10-23 07:52:00,
2013-10-23 03:57:00,69.3,64.2,29.83,West,278,3.1,3.1,84,0.00,,---,0.00,VWS V14.01,2013-10-23 07:57:00,
2013-10-23 04:02:00,69.3,64.6,29.83,West,262,0.0,3.1,85,0.00,,---,0.00,VWS V14.01,2013-10-23 08:02:00,
2013-10-23 04:07:00,69.1,64.7,29.83,WSW,246,2.2,2.2,86,0.00,,---,0.00,VWS V14.01,2013-10-23 08:07:00,
2013-10-23 04:12:00,69.1,65.1,29.83,NW,321,0.0,2.7,87,0.00,,---,0.00,VWS V14.01,2013-10-23 08:12:00,
2013-10-23 04:17:00,68.9,64.9,29.83,WNW,293,0.0,0.0,87,0.00,,---,0.00,VWS V14.01,2013-10-23 08:17:00,
2013-10-23 04:22:00,68.9,64.6,29.83,WNW,288,0.0,0.0,86,0.00,,---,0.00,VWS V14.01,2013-10-23 08:22:00,
2013-10-23 04:27:00,68.7,64.4,29.83,ESE,123,0.0,0.0,86,0.00,,---,0.00,VWS V14.01,2013-10-23 08:27:00,
2013-10-23 04:32:00,68.7,64.4,29.83,WNW,289,0.0,0.0,86,0.00,,---,0.00,VWS V14.01,2013-10-23 08:32:00,
2013-10-23 04:37:00,68.5,63.9,29.83,WNW,293,0.0,0.0,85,0.00,,---,0.00,VWS V14.01,2013-10-23 08:37:00,
2013-10-23 04:42:00,68.4,63.7,29.83,WSW,250,0.0,0.0,85,0.00,,---,0.00,VWS V14.01,2013-10-23 08:42:00,
2013-10-23 04:47:00,68.2,63.8,29.83,East,80,0.0,0.0,86,0.00,,---,0.00,VWS V14.01,2013-10-23 08:47:00,
2013-10-23 04:52:00,68.2,63.8,29.83,SW,231,0.0,3.1,86,0.00,,---,0.00,VWS V14.01,2013-10-23 08:52:00,
2013-10-23 04:57:00,68.0,64.3,29.83,SW,222,0.0,0.0,88,0.00,,---,0.00,VWS V14.01,2013-10-23 08:57:00,
2013-10-23 05:02:00,67.8,63.8,29.83,NNW,328,0.0,0.0,87,0.00,,---,0.00,VWS V14.01,2013-10-23 09:02:00,
2013-10-23 05:07:00,67.8,64.1,29.83,WSW,247,0.0,0.0,88,0.00,,---,0.00,VWS V14.01,2013-10-23 09:07:00,
2013-10-23 05:12:00,67.6,64.0,29.83,SW,235,0.0,2.2,88,0.00,,---,0.00,VWS V14.01,2013-10-23 09:12:00,
2013-10-23 05:17:00,67.6,63.6,29.83,NW,304,0.0,0.0,87,0.00,,---,0.00,VWS V14.01,2013-10-23 09:17:00,
2013-10-23 05:22:00,67.5,63.5,29.83,WSW,238,0.0,0.0,87,0.00,,---,0.00,VWS V14.01,2013-10-23 09:22:00,
2013-10-23 05:27:00,67.5,63.5,29.83,NW,316,0.0,0.0,87,0.00,,---,0.00,VWS V14.01,2013-10-23 09:27:00,
2013-10-23 05:32:00,67.3,63.0,29.83,NNW,327,0.0,0.0,86,0.00,,---,0.00,VWS V14.01,2013-10-23 09:32:00,
2013-10-23 05:37:00,67.3,63.0,29.83,NNW,332,0.0,0.0,86,0.00,,---,0.00,VWS V14.01,2013-10-23 09:37:00,
2013-10-23 05:42:00,67.3,63.0,29.83,NNW,332,0.0,0.0,86,0.00,,---,0.00,VWS V14.01,2013-10-23 09:42:00,
2013-10-23 05:47:00,67.1,62.8,29.83,SSW,208,0.0,2.2,86,0.00,,---,0.00,VWS V14.01,2013-10-23 09:47:00,
2013-10-23 05:52:00,67.1,62.5,29.83,SSW,209,0.0,0.0,85,0.00,,---,0.00,VWS V14.01,2013-10-23 09:52:00,
2013-10-23 05:57:00,66.9,62.3,29.83,SSW,208,0.0,0.0,85,0.00,,---,0.00,VWS V14.01,2013-10-23 09:57:00,
2013-10-23 06:02:00,66.9,62.3,29.83,SSW,209,0.0,0.0,85,0.00,,---,0.00,VWS V14.01,2013-10-23 10:02:00,
2013-10-23 06:07:00,66.7,62.1,29.83,SSW,209,0.0,0.0,85,0.00,,---,0.00,VWS V14.01,2013-10-23 10:07:00,
2013-10-23 06:12:00,66.6,61.6,29.83,SSW,208,0.0,0.0,84,0.00,,---,0.00,VWS V14.01,2013-10-23 10:12:00,
2013-10-23 06:17:00,66.4,61.4,29.85,SSW,209,0.0,0.0,84,0.00,,---,0.00,VWS V14.01,2013-10-23 10:17:00,
2013-10-23 06:22:00,66.2,61.2,29.85,SSW,209,0.0,0.0,84,0.00,,---,0.00,VWS V14.01,2013-10-23 10:22:00,
2013-10-23 06:27:00,66.0,61.4,29.85,SSW,208,0.0,0.0,85,0.00,,---,0.00,VWS V14.01,2013-10-23 10:27:00,
2013-10-23 06:32:00,65.8,60.9,29.85,SSW,209,0.0,0.0,84,0.00,,---,0.00,VWS V14.01,2013-10-23 10:32:00,
2013-10-23 06:37:00,65.8,60.9,29.85,SSW,209,0.0,0.0,84,0.00,,---,0.00,VWS V14.01,2013-10-23 10:37:00,
2013-10-23 06:42:00,65.7,60.7,29.85,SSW,208,0.0,0.0,84,0.00,,---,0.00,VWS V14.01,2013-10-23 10:42:00,
2013-10-23 06:47:00,65.5,60.5,29.85,SSW,209,0.0,0.0,84,0.00,,---,0.00,VWS V14.01,2013-10-23 10:47:00,
2013-10-23 06:52:00,65.5,60.5,29.85,SSW,208,0.0,0.0,84,0.00,,---,0.00,VWS V14.01,2013-10-23 10:52:00,
2013-10-23 06:57:00,65.3,60.3,29.85,SSW,209,0.0,0.0,84,0.00,,---,0.00,VWS V14.01,2013-10-23 10:57:00,
2013-10-23 07:02:00,65.3,60.7,29.85,SSW,208,0.0,0.0,85,0.00,,---,0.00,VWS V14.01,2013-10-23 11:02:00,
2013-10-23 07:07:00,65.1,60.5,29.85,West,259,0.0,0.0,85,0.00,,---,0.00,VWS V14.01,2013-10-23 11:07:00,
2013-10-23 07:12:00,65.1,60.5,29.85,West,259,0.0,0.0,85,0.00,,---,0.00,VWS V14.01,2013-10-23 11:12:00,
2013-10-23 07:17:00,65.1,60.5,29.85,NW,319,0.0,0.0,85,0.00,,---,0.00,VWS V14.01,2013-10-23 11:17:00,
2013-10-23 07:22:00,65.1,60.5,29.85,WNW,297,0.0,0.0,85,0.00,,---,0.00,VWS V14.01,2013-10-23 11:22:00,
2013-10-23 07:27:00,65.3,61.0,29.85,WNW,297,0.0,0.0,86,0.00,,---,0.00,VWS V14.01,2013-10-23 11:27:00,
2013-10-23 07:32:00,65.1,60.8,29.85,WNW,293,0.0,0.0,86,0.00,,---,0.00,VWS V14.01,2013-10-23 11:32:00,
2013-10-23 07:37:00,65.1,61.2,29.85,WNW,293,0.0,0.0,87,0.00,,---,0.00,VWS V14.01,2013-10-23 11:37:00,
2013-10-23 07:42:00,65.1,61.2,29.85,WNW,293,0.0,0.0,87,0.00,,---,0.00,VWS V14.01,2013-10-23 11:42:00,
2013-10-23 07:47:00,65.1,61.2,29.85,SW,236,0.0,0.0,87,0.00,,---,0.00,VWS V14.01,2013-10-23 11:47:00,
2013-10-23 07:52:00,65.1,61.5,29.85,SW,220,0.0,0.0,88,0.00,,---,0.00,VWS V14.01,2013-10-23 11:52:00,
2013-10-23 07:57:00,64.9,61.3,29.85,West,261,0.0,0.0,88,0.00,,---,0.00,VWS V14.01,2013-10-23 11:57:00,
2013-10-23 08:03:00,64.9,61.3,29.85,West,261,0.0,0.0,88,0.00,,---,0.00,VWS V14.01,2013-10-23 12:03:00,
2013-10-23 08:08:00,64.8,61.1,29.85,West,261,0.0,0.0,88,0.00,,---,0.00,VWS V14.01,2013-10-23 12:08:00,
2013-10-23 08:13:00,64.8,61.1,29.85,West,261,0.0,0.0,88,0.00,,---,0.00,VWS V14.01,2013-10-23 12:13:00,
2013-10-23 08:18:00,64.8,61.1,29.85,West,261,0.0,0.0,88,0.00,,---,0.00,VWS V14.01,2013-10-23 12:18:00,
2013-10-23 08:23:00,64.8,61.5,29.85,West,261,0.0,0.0,89,0.00,,---,0.00,VWS V14.01,2013-10-23 12:23:00,
2013-10-23 08:28:00,64.8,61.5,29.85,SSW,194,0.0,0.0,89,0.00,,---,0.00,VWS V14.01,2013-10-23 12:28:00,
2013-10-23 08:33:00,64.9,61.9,29.88,WSW,240,0.0,0.0,90,0.00,,---,0.00,VWS V14.01,2013-10-23 12:33:00,
2013-10-23 08:38:00,65.1,62.4,29.88,WSW,248,0.0,0.0,91,0.00,,---,0.00,VWS V14.01,2013-10-23 12:38:00,
2013-10-23 08:43:00,65.3,62.9,29.88,WNW,301,0.0,0.0,92,0.00,,---,0.00,VWS V14.01,2013-10-23 12:43:00,
2013-10-23 08:48:00,65.5,63.7,29.88,WSW,257,2.2,3.1,94,0.00,,---,0.00,VWS V14.01,2013-10-23 12:48:00,
2013-10-23 08:53:00,65.7,64.5,29.88,WSW,258,0.0,2.7,96,0.00,,---,0.00,VWS V14.01,2013-10-23 12:53:00,
2013-10-23 08:57:00,65.8,65.3,29.88,NNW,343,0.0,4.0,98,0.00,,---,0.00,VWS V14.01,2013-10-23 12:57:00,
2013-10-23 09:03:00,66.0,65.4,29.88,WSW,239,0.0,2.7,98,0.00,,---,0.00,VWS V14.01,2013-10-23 13:03:00,
2013-10-23 09:08:00,66.0,65.7,29.88,North,0,2.7,4.9,99,0.00,,---,0.00,VWS V14.01,2013-10-23 13:08:00,
2013-10-23 09:13:00,66.2,65.3,29.88,SW,221,6.3,6.3,97,0.00,,---,0.00,VWS V14.01,2013-10-23 13:13:00,
2013-10-23 09:18:00,66.0,64.6,29.88,West,263,0.0,0.0,95,0.00,,---,0.00,VWS V14.01,2013-10-23 13:18:00,
2013-10-23 09:22:00,66.2,64.1,29.88,NNW,339,0.0,5.4,93,0.00,,---,0.00,VWS V14.01,2013-10-23 13:22:00,
2013-10-23 09:27:00,66.2,63.8,29.88,SSW,207,2.2,4.0,92,0.00,,---,0.00,VWS V14.01,2013-10-23 13:27:00,
2013-10-23 09:32:00,66.2,62.9,29.88,NNW,335,3.6,4.5,89,0.00,,---,0.00,VWS V14.01,2013-10-23 13:32:00,
2013-10-23 09:37:00,66.2,61.9,29.88,WNW,289,5.4,5.4,86,0.00,,---,0.00,VWS V14.01,2013-10-23 13:37:00,
2013-10-23 09:43:00,66.0,61.4,29.88,SSW,196,0.0,3.6,85,0.00,,---,0.00,VWS V14.01,2013-10-23 13:43:00,
2013-10-23 09:48:00,66.2,61.6,29.91,SW,231,0.0,0.0,85,0.00,,---,0.00,VWS V14.01,2013-10-23 13:48:00,
2013-10-23 09:53:00,66.4,61.1,29.91,West,264,5.4,5.4,83,0.00,,---,0.00,VWS V14.01,2013-10-23 13:53:00,
2013-10-23 09:57:00,66.4,60.0,29.91,SW,231,2.2,2.2,80,0.00,,---,0.00,VWS V14.01,2013-10-23 13:57:00,
2013-10-23 10:02:00,66.6,59.1,29.91,NW,318,0.0,2.7,77,0.00,,---,0.00,VWS V14.01,2013-10-23 14:02:00,
2013-10-23 10:07:00,66.9,60.2,29.91,NW,309,0.0,0.0,79,0.00,,---,0.00,VWS V14.01,2013-10-23 14:07:00,
2013-10-23 10:12:00,67.1,57.4,29.91,West,272,0.0,3.1,71,0.00,,---,0.00,VWS V14.01,2013-10-23 14:12:00,
2013-10-23 10:17:00,67.5,57.0,29.91,NNW,339,2.7,3.6,69,0.00,,---,0.00,VWS V14.01,2013-10-23 14:17:00,
2013-10-23 10:23:00,67.8,57.7,29.91,SSW,210,3.1,3.1,70,0.00,,---,0.00,VWS V14.01,2013-10-23 14:23:00,
2013-10-23 10:28:00,68.0,56.7,29.91,ENE,67,4.0,5.8,67,0.00,,---,0.00,VWS V14.01,2013-10-23 14:28:00,
2013-10-23 10:33:00,68.4,56.2,29.88,WSW,244,5.4,5.4,65,0.00,,---,0.00,VWS V14.01,2013-10-23 14:33:00,
2013-10-23 10:38:00,68.5,56.7,29.88,NNE,33,2.7,3.1,66,0.00,,---,0.00,VWS V14.01,2013-10-23 14:38:00,
2013-10-23 10:43:00,68.9,58.3,29.88,NNW,328,0.0,0.0,69,0.00,,---,0.00,VWS V14.01,2013-10-23 14:43:00,
2013-10-23 10:48:00,68.9,55.8,29.91,SW,220,0.0,0.0,63,0.00,,---,0.00,VWS V14.01,2013-10-23 14:48:00,
2013-10-23 10:53:00,69.1,56.0,29.91,West,274,3.6,3.6,63,0.00,,---,0.00,VWS V14.01,2013-10-23 14:53:00,
2013-10-23 10:58:00,69.4,57.2,29.91,NW,304,2.7,2.7,65,0.00,,---,0.00,VWS V14.01,2013-10-23 14:58:00,
2013-10-23 11:03:00,69.6,58.2,29.91,NE,47,0.0,0.0,67,0.00,,---,0.00,VWS V14.01,2013-10-23 15:03:00,
2013-10-23 11:08:00,69.6,56.9,29.91,West,276,0.0,0.0,64,0.00,,---,0.00,VWS V14.01,2013-10-23 15:08:00,
2013-10-23 11:13:00,69.8,52.4,29.91,SW,224,2.7,2.7,54,0.00,,---,0.00,VWS V14.01,2013-10-23 15:13:00,
2013-10-23 11:18:00,69.8,52.9,29.91,SW,234,2.7,3.6,55,0.00,,---,0.00,VWS V14.01,2013-10-23 15:18:00,
2013-10-23 11:23:00,70.0,55.0,29.91,NW,314,3.1,3.1,59,0.00,,---,0.00,VWS V14.01,2013-10-23 15:23:00,
2013-10-23 11:28:00,70.2,55.2,29.91,NW,310,3.1,4.9,59,0.00,,---,0.00,VWS V14.01,2013-10-23 15:28:00,
2013-10-23 11:33:00,70.2,53.8,29.91,SW,231,2.7,2.7,56,0.00,,---,0.00,VWS V14.01,2013-10-23 15:33:00,
2013-10-23 11:38:00,70.5,55.0,29.91,NW,307,0.0,0.0,58,0.00,,---,0.00,VWS V14.01,2013-10-23 15:38:00,
2013-10-23 11:43:00,70.7,52.2,29.91,NW,304,3.6,3.6,52,0.00,,---,0.00,VWS V14.01,2013-10-23 15:43:00,
2013-10-23 11:48:00,70.9,53.9,29.91,WSW,243,0.0,0.0,55,0.00,,---,0.00,VWS V14.01,2013-10-23 15:48:00,
2013-10-23 11:53:00,71.2,53.2,29.91,West,274,3.6,3.6,53,0.00,,---,0.00,VWS V14.01,2013-10-23 15:53:00,
2013-10-23 11:58:00,71.2,52.7,29.91,NW,307,3.1,3.1,52,0.00,,---,0.00,VWS V14.01,2013-10-23 15:58:00,
2013-10-23 12:03:00,71.2,50.0,29.91,SW,234,3.1,3.6,47,0.00,,---,0.00,VWS V14.01,2013-10-23 16:03:00,
2013-10-23 12:08:00,71.4,52.9,29.91,North,350,2.2,3.6,52,0.00,,---,0.00,VWS V14.01,2013-10-23 16:08:00,
2013-10-23 12:13:00,71.6,53.6,29.91,NE,42,2.7,3.1,53,0.00,,---,0.00,VWS V14.01,2013-10-23 16:13:00,
2013-10-23 12:18:00,71.8,52.2,29.88,WSW,254,0.0,0.0,50,0.00,,---,0.00,VWS V14.01,2013-10-23 16:18:00,
2013-10-23 12:23:00,72.0,49.5,29.88,NW,304,7.2,8.3,45,0.00,,---,0.00,VWS V14.01,2013-10-23 16:23:00,
2013-10-23 12:28:00,72.1,52.5,29.88,SW,232,3.1,5.8,50,0.00,,---,0.00,VWS V14.01,2013-10-23 16:28:00,
2013-10-23 12:33:00,72.3,49.2,29.88,WSW,250,4.0,4.0,44,0.00,,---,0.00,VWS V14.01,2013-10-23 16:33:00,
2013-10-23 12:38:00,72.1,49.7,29.88,WNW,290,2.7,4.0,45,0.00,,---,0.00,VWS V14.01,2013-10-23 16:38:00,
2013-10-23 12:43:00,72.1,49.7,29.88,SW,224,2.7,2.7,45,0.00,,---,0.00,VWS V14.01,2013-10-23 16:43:00,
2013-10-23 12:48:00,72.1,47.8,29.88,West,270,2.7,4.0,42,0.00,,---,0.00,VWS V14.01,2013-10-23 16:48:00,
2013-10-23 12:53:00,72.3,48.6,29.88,ESE,104,3.6,3.6,43,0.00,,---,0.00,VWS V14.01,2013-10-23 16:53:00,
2013-10-23 12:58:00,72.1,47.8,29.88,NW,321,2.2,2.7,42,0.00,,---,0.00,VWS V14.01,2013-10-23 16:58:00,
2013-10-23 13:03:00,72.5,48.1,29.88,WSW,245,0.0,2.7,42,0.00,,---,0.00,VWS V14.01,2013-10-23 17:03:00,
2013-10-23 13:08:00,72.7,48.3,29.88,NNW,331,4.0,4.0,42,0.00,,---,0.00,VWS V14.01,2013-10-23 17:08:00,
2013-10-23 13:13:00,72.9,49.1,29.88,SW,232,5.4,5.4,43,0.00,,---,0.00,VWS V14.01,2013-10-23 17:13:00,
2013-10-23 13:18:00,73.0,48.6,29.88,West,270,3.6,4.9,42,0.00,,---,0.00,VWS V14.01,2013-10-23 17:18:00,
2013-10-23 13:23:00,73.4,48.3,29.88,West,278,3.1,3.1,41,0.00,,---,0.00,VWS V14.01,2013-10-23 17:23:00,
2013-10-23 13:28:00,73.9,49.4,29.88,WNW,295,2.7,2.7,42,0.00,,---,0.00,VWS V14.01,2013-10-23 17:28:00,
2013-10-23 13:33:00,74.3,49.1,29.88,NW,316,2.7,3.1,41,0.00,,---,0.00,VWS V14.01,2013-10-23 17:33:00,
2013-10-23 13:38:00,74.5,49.3,29.88,WSW,256,4.0,4.0,41,0.00,,---,0.00,VWS V14.01,2013-10-23 17:38:00,
2013-10-23 13:43:00,74.3,49.1,29.88,SSW,196,2.7,2.7,41,0.00,,---,0.00,VWS V14.01,2013-10-23 17:43:00,
2013-10-23 13:48:00,74.3,49.1,29.88,SW,217,2.2,2.2,41,0.00,,---,0.00,VWS V14.01,2013-10-23 17:48:00,
2013-10-23 13:53:00,74.5,49.3,29.88,NNW,348,4.0,4.0,41,0.00,,---,0.00,VWS V14.01,2013-10-23 17:53:00,
2013-10-23 13:58:00,74.7,49.4,29.88,WSW,238,5.4,5.4,41,0.00,,---,0.00,VWS V14.01,2013-10-23 17:58:00,
2013-10-23 14:03:00,74.7,47.4,29.88,SSW,202,4.0,4.9,38,0.00,,---,0.00,VWS V14.01,2013-10-23 18:03:00,
2013-10-23 14:08:00,74.8,47.6,29.88,NNW,348,2.7,3.6,38,0.00,,---,0.00,VWS V14.01,2013-10-23 18:08:00,
2013-10-23 14:13:00,75.2,47.9,29.88,North,353,2.7,5.4,38,0.00,,---,0.00,VWS V14.01,2013-10-23 18:13:00,
2013-10-23 14:18:00,75.6,48.2,29.88,NNE,33,3.6,4.0,38,0.00,,---,0.00,VWS V14.01,2013-10-23 18:18:00,
2013-10-23 14:23:00,75.6,48.2,29.88,SSW,202,2.7,2.7,38,0.00,,---,0.00,VWS V14.01,2013-10-23 18:23:00,
2013-10-23 14:28:00,75.6,48.2,29.88,SW,234,5.8,7.6,38,0.00,,---,0.00,VWS V14.01,2013-10-23 18:28:00,
2013-10-23 14:33:00,75.7,48.4,29.88,NW,308,3.1,3.1,38,0.00,,---,0.00,VWS V14.01,2013-10-23 18:33:00,
2013-10-23 14:38:00,75.7,48.4,29.88,NW,307,3.1,4.0,38,0.00,,---,0.00,VWS V14.01,2013-10-23 18:38:00,
2013-10-23 14:43:00,75.7,48.4,29.88,West,279,2.7,2.7,38,0.00,,---,0.00,VWS V14.01,2013-10-23 18:43:00,
2013-10-23 14:48:00,76.1,48.7,29.88,SW,236,3.1,5.8,38,0.00,,---,0.00,VWS V14.01,2013-10-23 18:48:00,
2013-10-23 14:53:00,75.9,46.3,29.88,SW,220,5.4,5.4,35,0.00,,---,0.00,VWS V14.01,2013-10-23 18:53:00,
2013-10-23 14:58:00,75.6,48.2,29.88,NNW,334,2.7,2.7,38,0.00,,---,0.00,VWS V14.01,2013-10-23 18:58:00,
2013-10-23 15:03:00,75.4,45.9,29.88,West,264,5.8,5.8,35,0.00,,---,0.00,VWS V14.01,2013-10-23 19:03:00,
2013-10-23 15:08:00,75.2,45.7,29.88,West,266,4.0,5.4,35,0.00,,---,0.00,VWS V14.01,2013-10-23 19:08:00,
2013-10-23 15:13:00,74.8,46.1,29.88,SW,223,2.7,4.9,36,0.00,,---,0.00,VWS V14.01,2013-10-23 19:13:00,
2013-10-23 15:18:00,74.8,46.1,29.88,SSW,199,4.9,5.8,36,0.00,,---,0.00,VWS V14.01,2013-10-23 19:18:00,
2013-10-23 15:23:00,74.7,46.0,29.88,WSW,245,4.0,4.0,36,0.00,,---,0.00,VWS V14.01,2013-10-23 19:23:00,
2013-10-23 15:28:00,74.8,46.1,29.88,West,265,3.1,3.1,36,0.00,,---,0.00,VWS V14.01,2013-10-23 19:28:00,
2013-10-23 15:33:00,75.0,46.3,29.88,WSW,254,7.6,8.1,36,0.00,,---,0.00,VWS V14.01,2013-10-23 19:33:00,
2013-10-23 15:38:00,74.7,46.0,29.88,WNW,302,2.7,2.7,36,0.00,,---,0.00,VWS V14.01,2013-10-23 19:38:00,
2013-10-23 15:43:00,74.3,45.7,29.88,North,357,0.0,3.1,36,0.00,,---,0.00,VWS V14.01,2013-10-23 19:43:00,
2013-10-23 15:48:00,74.1,45.5,29.88,West,272,2.7,5.8,36,0.00,,---,0.00,VWS V14.01,2013-10-23 19:48:00,
2013-10-23 15:53:00,74.1,45.5,29.88,West,260,7.2,7.2,36,0.00,,---,0.00,VWS V14.01,2013-10-23 19:53:00,
2013-10-23 15:58:00,74.8,46.1,29.88,West,268,3.1,4.9,36,0.00,,---,0.00,VWS V14.01,2013-10-23 19:58:00,
2013-10-23 16:03:00,75.2,45.7,29.88,WNW,295,4.9,5.8,35,0.00,,---,0.00,VWS V14.01,2013-10-23 20:03:00,
2013-10-23 16:08:00,75.0,46.3,29.88,WNW,283,0.0,0.0,36,0.00,,---,0.00,VWS V14.01,2013-10-23 20:08:00,
2013-10-23 16:13:00,74.5,45.8,29.88,West,265,5.4,5.4,36,0.00,,---,0.00,VWS V14.01,2013-10-23 20:13:00,
2013-10-23 16:18:00,74.1,45.5,29.88,SW,232,3.1,3.1,36,0.00,,---,0.00,VWS V14.01,2013-10-23 20:18:00,
2013-10-23 16:23:00,73.9,45.3,29.88,SW,233,4.5,5.4,36,0.00,,---,0.00,VWS V14.01,2013-10-23 20:23:00,
2013-10-23 16:28:00,73.9,45.3,29.88,WSW,239,2.7,3.6,36,0.00,,---,0.00,VWS V14.01,2013-10-23 20:28:00,
2013-10-23 16:33:00,74.1,45.5,29.88,WSW,250,2.7,3.1,36,0.00,,---,0.00,VWS V14.01,2013-10-23 20:33:00,
2013-10-23 16:38:00,74.5,45.8,29.88,SW,236,2.7,2.7,36,0.00,,---,0.00,VWS V14.01,2013-10-23 20:38:00,
2013-10-23 16:43:00,74.5,45.8,29.88,WSW,254,2.7,2.7,36,0.00,,---,0.00,VWS V14.01,2013-10-23 20:43:00,
2013-10-23 16:48:00,74.5,45.8,29.88,WNW,283,4.0,4.0,36,0.00,,---,0.00,VWS V14.01,2013-10-23 20:48:00,
2013-10-23 16:53:00,74.7,46.0,29.88,SSW,208,3.1,5.8,36,0.00,,---,0.00,VWS V14.01,2013-10-23 20:53:00,
2013-10-23 16:58:00,75.0,46.3,29.88,North,357,2.7,4.0,36,0.00,,---,0.00,VWS V14.01,2013-10-23 20:58:00,
2013-10-23 17:03:00,75.2,45.7,29.88,WSW,238,2.7,3.6,35,0.00,,---,0.00,VWS V14.01,2013-10-23 21:03:00,
2013-10-23 17:08:00,75.0,46.3,29.88,WSW,245,5.8,5.8,36,0.00,,---,0.00,VWS V14.01,2013-10-23 21:08:00,
2013-10-23 17:13:00,74.8,46.1,29.88,West,270,0.0,0.0,36,0.00,,---,0.00,VWS V14.01,2013-10-23 21:13:00,
2013-10-23 17:18:00,74.7,46.0,29.88,WSW,247,0.0,0.0,36,0.00,,---,0.00,VWS V14.01,2013-10-23 21:18:00,
2013-10-23 17:23:00,74.3,45.7,29.88,West,259,0.0,4.0,36,0.00,,---,0.00,VWS V14.01,2013-10-23 21:23:00,
2013-10-23 17:28:00,73.8,45.2,29.88,WNW,283,2.2,2.2,36,0.00,,---,0.00,VWS V14.01,2013-10-23 21:28:00,
2013-10-23 17:33:00,73.6,45.0,29.88,SW,227,0.0,0.0,36,0.00,,---,0.00,VWS V14.01,2013-10-23 21:33:00,
2013-10-23 17:38:00,73.4,44.8,29.88,NNW,330,0.0,0.0,36,0.00,,---,0.00,VWS V14.01,2013-10-23 21:38:00,
2013-10-23 17:43:00,73.4,44.8,29.88,NNE,20,0.0,0.0,36,0.00,,---,0.00,VWS V14.01,2013-10-23 21:43:00,
2013-10-23 17:48:00,73.2,44.7,29.88,NNE,20,0.0,0.0,36,0.00,,---,0.00,VWS V14.01,2013-10-23 21:48:00,
2013-10-23 17:53:00,73.4,44.8,29.88,NNE,18,0.0,0.0,36,0.00,,---,0.00,VWS V14.01,2013-10-23 21:53:00,
2013-10-23 17:58:00,73.2,44.7,29.88,SSW,206,0.0,0.0,36,0.00,,---,0.00,VWS V14.01,2013-10-23 21:58:00,
2013-10-23 18:03:00,72.9,44.4,29.91,SSW,206,0.0,0.0,36,0.00,,---,0.00,VWS V14.01,2013-10-23 22:03:00,
2013-10-23 18:08:00,71.8,43.4,29.91,SSW,206,0.0,0.0,36,0.00,,---,0.00,VWS V14.01,2013-10-23 22:08:00,
2013-10-23 18:13:00,70.9,43.3,29.91,SSW,206,0.0,0.0,37,0.00,,---,0.00,VWS V14.01,2013-10-23 22:13:00,
2013-10-23 18:18:00,70.3,42.9,29.91,SSW,206,0.0,0.0,37,0.00,,---,0.00,VWS V14.01,2013-10-23 22:18:00,
2013-10-23 18:23:00,70.0,42.5,29.91,SSW,206,0.0,0.0,37,0.00,,---,0.00,VWS V14.01,2013-10-23 22:23:00,
2013-10-23 18:28:00,69.6,42.2,29.91,SSW,206,0.0,0.0,37,0.00,,---,0.00,VWS V14.01,2013-10-23 22:28:00,
2013-10-23 18:33:00,69.3,41.9,29.88,SSW,206,0.0,0.0,37,0.00,,---,0.00,VWS V14.01,2013-10-23 22:33:00,
2013-10-23 18:39:00,68.7,41.4,29.88,SSW,206,0.0,0.0,37,0.00,,---,0.00,VWS V14.01,2013-10-23 22:39:00,
2013-10-23 18:44:00,68.2,40.9,29.88,SSW,206,0.0,0.0,37,0.00,,---,0.00,VWS V14.01,2013-10-23 22:44:00,
2013-10-23 18:49:00,67.6,40.5,29.91,SSW,206,0.0,0.0,37,0.00,,---,0.00,VWS V14.01,2013-10-23 22:49:00,
2013-10-23 18:54:00,66.9,39.8,29.91,SSW,206,0.0,0.0,37,0.00,,---,0.00,VWS V14.01,2013-10-23 22:54:00,
2013-10-23 18:59:00,66.2,41.2,29.91,SSW,206,0.0,0.0,40,0.00,,---,0.00,VWS V14.01,2013-10-23 22:59:00,
2013-10-23 19:04:00,65.7,40.7,29.91,SSW,206,0.0,0.0,40,0.00,,---,0.00,VWS V14.01,2013-10-23 23:04:00,
2013-10-23 19:09:00,65.1,40.2,29.91,SSW,206,0.0,0.0,40,0.00,,---,0.00,VWS V14.01,2013-10-23 23:09:00,
2013-10-23 19:14:00,64.4,39.6,29.91,SSW,206,0.0,0.0,40,0.00,,---,0.00,VWS V14.01,2013-10-23 23:14:00,
2013-10-23 19:19:00,63.9,39.7,29.94,SSW,206,0.0,0.0,41,0.00,,---,0.00,VWS V14.01,2013-10-23 23:19:00,
2013-10-23 19:24:00,63.5,39.4,29.94,SSW,206,0.0,0.0,41,0.00,,---,0.00,VWS V14.01,2013-10-23 23:24:00,
2013-10-23 19:29:00,63.0,38.9,29.94,SSW,206,0.0,0.0,41,0.00,,---,0.00,VWS V14.01,2013-10-23 23:29:00,
2013-10-23 19:34:00,62.6,38.6,29.94,SSW,206,0.0,0.0,41,0.00,,---,0.00,VWS V14.01,2013-10-23 23:34:00,
2013-10-23 19:39:00,62.2,38.3,29.94,SSW,206,0.0,0.0,41,0.00,,---,0.00,VWS V14.01,2013-10-23 23:39:00,
2013-10-23 19:44:00,61.9,38.0,29.94,SSW,206,0.0,0.0,41,0.00,,---,0.00,VWS V14.01,2013-10-23 23:44:00,
2013-10-23 19:49:00,61.5,37.6,29.94,SSW,206,0.0,0.0,41,0.00,,---,0.00,VWS V14.01,2013-10-23 23:49:00,
2013-10-23 19:54:00,61.2,39.1,29.94,SSW,206,0.0,0.0,44,0.00,,---,0.00,VWS V14.01,2013-10-23 23:54:00,
2013-10-23 19:59:00,61.0,38.9,29.94,SSW,206,0.0,0.0,44,0.00,,---,0.00,VWS V14.01,2013-10-23 23:59:00,
2013-10-23 20:04:00,60.6,38.6,29.94,SSW,206,0.0,0.0,44,0.00,,---,0.00,VWS V14.01,2013-10-24 00:04:00,
2013-10-23 20:09:00,60.4,38.4,29.94,SSW,206,0.0,0.0,44,0.00,,---,0.00,VWS V14.01,2013-10-24 00:09:00,
2013-10-23 20:14:00,60.1,38.1,29.94,SSW,206,0.0,0.0,44,0.00,,---,0.00,VWS V14.01,2013-10-24 00:14:00,
2013-10-23 20:19:00,59.9,38.0,29.94,SSW,206,0.0,0.0,44,0.00,,---,0.00,VWS V14.01,2013-10-24 00:19:00,
2013-10-23 20:24:00,59.5,37.6,29.94,SSW,206,0.0,0.0,44,0.00,,---,0.00,VWS V14.01,2013-10-24 00:24:00,
2013-10-23 20:29:00,59.4,37.5,29.94,SSW,206,0.0,0.0,44,0.00,,---,0.00,VWS V14.01,2013-10-24 00:29:00,
2013-10-23 20:34:00,59.2,37.3,29.94,SSW,206,0.0,0.0,44,0.00,,---,0.00,VWS V14.01,2013-10-24 00:34:00,
2013-10-23 20:39:00,58.8,37.5,29.94,SSW,206,0.0,0.0,45,0.00,,---,0.00,VWS V14.01,2013-10-24 00:39:00,
2013-10-23 20:44:00,58.6,37.4,29.94,SSW,206,0.0,0.0,45,0.00,,---,0.00,VWS V14.01,2013-10-24 00:44:00,
2013-10-23 20:49:00,58.5,37.2,29.94,SSW,206,0.0,0.0,45,0.00,,---,0.00,VWS V14.01,2013-10-24 00:49:00,
2013-10-23 20:54:00,58.3,37.0,29.94,SSW,206,0.0,0.0,45,0.00,,---,0.00,VWS V14.01,2013-10-24 00:54:00,
2013-10-23 20:59:00,58.1,36.9,29.94,SSW,206,0.0,0.0,45,0.00,,---,0.00,VWS V14.01,2013-10-24 00:59:00,
2013-10-23 21:04:00,57.9,36.7,29.97,SSW,206,0.0,0.0,45,0.00,,---,0.00,VWS V14.01,2013-10-24 01:04:00,
2013-10-23 21:09:00,57.7,36.6,29.97,SSW,206,0.0,0.0,45,0.00,,---,0.00,VWS V14.01,2013-10-24 01:09:00,
2013-10-23 21:14:00,57.7,36.6,29.97,SSW,206,0.0,0.0,45,0.00,,---,0.00,VWS V14.01,2013-10-24 01:14:00,
2013-10-23 21:19:00,57.6,37.0,29.97,SSW,206,0.0,0.0,46,0.00,,---,0.00,VWS V14.01,2013-10-24 01:19:00,
2013-10-23 21:24:00,57.6,37.0,29.97,SSW,206,0.0,0.0,46,0.00,,---,0.00,VWS V14.01,2013-10-24 01:24:00,
2013-10-23 21:29:00,57.4,36.8,29.97,SSW,206,0.0,0.0,46,0.00,,---,0.00,VWS V14.01,2013-10-24 01:29:00,
2013-10-23 21:34:00,57.2,36.6,29.97,SSW,206,0.0,0.0,46,0.00,,---,0.00,VWS V14.01,2013-10-24 01:34:00,
2013-10-23 21:39:00,57.0,37.0,29.97,SSW,206,0.0,0.0,47,0.00,,---,0.00,VWS V14.01,2013-10-24 01:39:00,
2013-10-23 21:44:00,57.0,37.0,29.97,SSW,206,0.0,0.0,47,0.00,,---,0.00,VWS V14.01,2013-10-24 01:44:00,
2013-10-23 21:49:00,56.8,36.8,29.97,SSW,206,0.0,0.0,47,0.00,,---,0.00,VWS V14.01,2013-10-24 01:49:00,
2013-10-23 21:54:00,56.8,36.8,29.97,SSW,206,0.0,0.0,47,0.00,,---,0.00,VWS V14.01,2013-10-24 01:54:00,
2013-10-23 21:59:00,56.7,36.7,29.97,SSW,206,0.0,0.0,47,0.00,,---,0.00,VWS V14.01,2013-10-24 01:59:00,
2013-10-23 22:04:00,56.5,36.5,29.97,SSW,206,0.0,0.0,47,0.00,,---,0.00,VWS V14.01,2013-10-24 02:04:00,
2013-10-23 22:09:00,56.3,36.3,29.97,SSW,206,0.0,0.0,47,0.00,,---,0.00,VWS V14.01,2013-10-24 02:09:00,
2013-10-23 22:14:00,56.1,36.2,29.97,SSW,206,0.0,0.0,47,0.00,,---,0.00,VWS V14.01,2013-10-24 02:14:00,
2013-10-23 22:19:00,55.9,36.0,29.97,SSW,206,0.0,0.0,47,0.00,,---,0.00,VWS V14.01,2013-10-24 02:19:00,
2013-10-23 22:24:00,55.9,36.0,29.97,SSW,206,0.0,0.0,47,0.00,,---,0.00,VWS V14.01,2013-10-24 02:24:00,
2013-10-23 22:29:00,55.8,35.8,29.97,SSW,206,0.0,0.0,47,0.00,,---,0.00,VWS V14.01,2013-10-24 02:29:00,
2013-10-23 22:34:00,55.6,35.7,29.97,SSW,206,0.0,0.0,47,0.00,,---,0.00,VWS V14.01,2013-10-24 02:34:00,
2013-10-23 22:39:00,55.6,35.7,29.97,SSW,206,0.0,0.0,47,0.00,,---,0.00,VWS V14.01,2013-10-24 02:39:00,
2013-10-23 22:44:00,55.4,36.1,29.97,SSW,206,0.0,0.0,48,0.00,,---,0.00,VWS V14.01,2013-10-24 02:44:00,
2013-10-23 22:49:00,55.2,35.9,30.00,SSW,206,0.0,0.0,48,0.00,,---,0.00,VWS V14.01,2013-10-24 02:49:00,
2013-10-23 22:54:00,55.2,35.9,30.00,SSW,206,0.0,0.0,48,0.00,,---,0.00,VWS V14.01,2013-10-24 02:54:00,
2013-10-23 22:59:00,55.0,36.2,30.00,SSW,206,0.0,0.0,49,0.00,,---,0.00,VWS V14.01,2013-10-24 02:59:00,
2013-10-23 23:04:00,55.0,36.2,30.00,SSW,206,0.0,0.0,49,0.00,,---,0.00,VWS V14.01,2013-10-24 03:04:00,
2013-10-23 23:09:00,54.9,36.1,30.00,SSW,206,0.0,0.0,49,0.00,,---,0.00,VWS V14.01,2013-10-24 03:09:00,
2013-10-23 23:14:00,54.9,36.1,30.00,SSW,206,0.0,0.0,49,0.00,,---,0.00,VWS V14.01,2013-10-24 03:14:00,
2013-10-23 23:19:00,54.9,36.6,30.00,SSW,206,0.0,0.0,50,0.00,,---,0.00,VWS V14.01,2013-10-24 03:19:00,
2013-10-23 23:24:00,54.9,36.6,30.00,SSW,206,0.0,0.0,50,0.00,,---,0.00,VWS V14.01,2013-10-24 03:24:00,
2013-10-23 23:29:00,54.9,36.6,30.00,SSW,206,0.0,0.0,50,0.00,,---,0.00,VWS V14.01,2013-10-24 03:29:00,
2013-10-23 23:34:00,54.7,36.4,30.00,SSW,206,0.0,0.0,50,0.00,,---,0.00,VWS V14.01,2013-10-24 03:34:00,
2013-10-23 23:39:00,54.5,36.3,30.00,SSW,206,0.0,0.0,50,0.00,,---,0.00,VWS V14.01,2013-10-24 03:39:00,
2013-10-23 23:44:00,54.5,36.3,30.00,SSW,206,0.0,0.0,50,0.00,,---,0.00,VWS V14.01,2013-10-24 03:44:00,
2013-10-23 23:49:00,54.5,36.3,30.00,SSW,206,0.0,0.0,50,0.00,,---,0.00,VWS V14.01,2013-10-24 03:49:00,
2013-10-23 23:54:00,54.3,36.1,30.00,SSW,206,0.0,0.0,50,0.00,,---,0.00,VWS V14.01,2013-10-24 03:54:00,
2013-10-23 23:59:00,54.3,36.6,30.00,SSW,206,0.0,0.0,51,0.00,,---,0.00,VWS V14.01,2013-10-24 03:59:00,